Weather in Maebashi

Japan     36°23′15″N   139°04′11″E
temp.,
°C
wind,
m/s
gust,
m/s
humid.,
%
clouds,
%
prec.,
mm/h
press.,
hPa
HPBL,
m
28 november, sun
sun2800:00+1nnw357712 0.0 1028149
03:00+1nnw24795 0.0 1029113
06:00+1nnw35784 0.0 1031137
09:00+5nw35582 0.0 1031600
12:00+9n37397 0.0 10301886
15:00+8n47430 0.0 10311098
18:00+3n45720 0.0 1033179
21:00+1n34711 0.0 1034123
29 november, mon
mon2900:000n34641 0.0 1034109
03:000n23530 0.0 103288
06:000n2348100 0.0 103382
09:00+5nnw1137100 0.0 1031237
12:00+9s1032100 0.0 1028555
15:00+9s1035100 0.0 1027310
18:00+5n2149100 0.0 102823
21:00+3n3363100 0.0 102984
30 november, tue
tue3000:00+3nnw235391 0.0 102968
03:00+2nnw335139 0.0 102869
06:00+2n22530 0.0 102747
09:00+7nnw11405 0.0 1025209
12:00+10se2233100 0.0 1022599
15:00+10se2337100 0.0 1019532
18:00+7nw1149100 0.0 101928
21:00+7nw1161100 0.0 101751
1 december, wed
wed100:00+8se2676100 0.0 1012295
03:00+8sse2894100 0.7 1006509
06:00+8nnw3496100 6.4 1001135
09:00+7nnw58835 9.7 1000311
12:00+13w47443 0.0 9981227
15:00+9nw365231 0.0 10011045
18:00+6w365483 0.0 1004767
21:00+3nw23635 0.0 1007334
2 december, thu
thu200:00+3nw375334 0.0 1009340
03:00+3wnw494826 0.0 10111255
06:00+2nnw38502 0.0 1013479
09:00+4nnw34562 0.0 1017593
12:00+8nnw23390 0.0 1015969
15:00+8se22370 0.0 1015896
18:00+6n224696 0.0 1017104
21:00+5nnw226092 0.0 101991